Lake of Egypt Weather Center

Moon Phase Calendar



Lake of Egypt Water Level
Online Cameras

 


      

Current Conditions in Goreville
11/29/2022 3:20:23 PM

60°F
Feels Like 60
Clouds
Humidity
94%
Pressure
29.65"
Wind
19.6 mph (S)
Dew Point
58°F
UV Index
0/10 (Low)
Visibility
6 mi

Hourly Forecast

Date & Time Tue, Nov 29
3:00 PM
Tue, Nov 29
4:00 PM
Tue, Nov 29
5:00 PM
Tue, Nov 29
6:00 PM
Tue, Nov 29
7:00 PM
Tue, Nov 29
8:00 PM
Tue, Nov 29
9:00 PM
Tue, Nov 29
10:00 PM
Tue, Nov 29
11:00 PM
Wed, Nov 30
12:00 AM
Wed, Nov 30
1:00 AM
Wed, Nov 30
2:00 AM
Wed, Nov 30
3:00 AM
Wed, Nov 30
4:00 AM
Wed, Nov 30
5:00 AM
Wed, Nov 30
6:00 AM
Wed, Nov 30
7:00 AM
Wed, Nov 30
8:00 AM
Wed, Nov 30
9:00 AM
Wed, Nov 30
10:00 AM
Wed, Nov 30
11:00 AM
Wed, Nov 30
12:00 PM
Wed, Nov 30
1:00 PM
Wed, Nov 30
2:00 PM
Wed, Nov 30
3:00 PM
Wed, Nov 30
4:00 PM
Wed, Nov 30
5:00 PM
Wed, Nov 30
6:00 PM
Wed, Nov 30
7:00 PM
Wed, Nov 30
8:00 PM
Wed, Nov 30
9:00 PM
Wed, Nov 30
10:00 PM
Wed, Nov 30
11:00 PM
Thu, Dec 1
12:00 AM
Thu, Dec 1
1:00 AM
Thu, Dec 1
2:00 AM
Thu, Dec 1
3:00 AM
Thu, Dec 1
4:00 AM
Thu, Dec 1
5:00 AM
Thu, Dec 1
6:00 AM
Thu, Dec 1
7:00 AM
Thu, Dec 1
8:00 AM
Thu, Dec 1
9:00 AM
Thu, Dec 1
10:00 AM
Thu, Dec 1
11:00 AM
Thu, Dec 1
12:00 PM
Thu, Dec 1
1:00 PM
Thu, Dec 1
2:00 PM
Condition
Rain

Clouds

Clouds

Clouds

Rain

Rain

Rain

Rain

Rain

Clouds

Clouds

Clouds

Clouds

Clouds

Clouds

Clear

Clear

Clear

Clear

Clear

Clear

Clear

Clear

Clear

Clear

Clear

Clear

Clear

Clear

Clear

Clear

Clear

Clouds

Clouds

Clouds

Clouds

Clouds

Clouds

Clouds

Clouds

Clouds

Clouds

Clouds

Clouds

Clouds

Clouds

Clouds

Clouds
Temperature 60°F60°F60°F61°F61°F61°F61°F55°F46°F42°F38°F36°F34°F33°F32°F30°F29°F30°F33°F35°F38°F40°F41°F42°F42°F40°F35°F34°F33°F32°F31°F30°F30°F29°F29°F28°F28°F27°F27°F27°F27°F29°F33°F36°F39°F42°F44°F44°F
Feels Like 60°F60°F61°F61°F61°F61°F61°F54°F39°F34°F28°F26°F24°F22°F21°F20°F19°F21°F23°F26°F30°F32°F34°F35°F35°F34°F30°F29°F28°F26°F26°F25°F24°F24°F23°F23°F22°F22°F22°F23°F22°F25°F27°F31°F35°F38°F40°F40°F
Cloudiness 100%100%99%99%100%100%100%100%100%100%28%17%14%13%11%10%0%0%0%0%0%0%0%0%0%0%0%0%0%0%0%0%11%24%98%98%99%99%99%99%100%100%100%100%100%99%53%64%
Visibility 6 mi6 mi6 mi6 mi6 mi6 mi6 mi5 mi6 mi6 mi6 mi6 mi6 mi6 mi6 mi6 mi6 mi6 mi6 mi6 mi6 mi6 mi6 mi6 mi6 mi6 mi6 mi6 mi6 mi6 mi6 mi6 mi6 mi6 mi6 mi6 mi6 mi6 mi6 mi6 mi6 mi6 mi6 mi6 mi6 mi6 mi6 mi6 mi
Precipitation 57%84%81%88%88%96%100%99%99%77%0%0%0%0%0%0%0%0%0%0%0%0%0%0%0%0%0%0%0%0%0%0%0%0%0%0%0%0%0%0%0%0%0%0%0%0%0%0%
Humidity 94%93%94%92%95%95%95%86%73%75%75%74%72%70%66%63%63%60%51%44%38%34%32%31%32%36%44%47%49%51%52%54%55%55%56%55%55%55%54%53%53%47%40%34%30%28%27%27%
Dew Point 58°F58°F59°F59°F59°F60°F60°F51°F38°F35°F31°F28°F26°F24°F21°F19°F18°F18°F17°F16°F15°F14°F13°F13°F14°F15°F16°F16°F16°F16°F16°F15°F15°F15°F15°F14°F14°F13°F13°F12°F12°F12°F11°F11°F11°F11°F12°F13°F
Pressure 29.65"29.65"29.65"29.68"29.68"29.68"29.68"29.74"29.8"29.85"29.91"29.97"30.03"30.09"30.15"30.18"30.24"30.27"30.3"30.33"30.33"30.33"30.33"30.33"30.33"30.36"30.39"30.42"30.42"30.45"30.47"30.47"30.5"30.5"30.5"30.53"30.53"30.53"30.53"30.56"30.56"30.56"30.56"30.56"30.53"30.5"30.47"30.47"
Wind Speed 17.4 mph16.4 mph16.2 mph15.9 mph14.2 mph12.5 mph12.3 mph17.9 mph17.4 mph18.7 mph18 mph17.4 mph17 mph16.6 mph15.3 mph13.8 mph12.4 mph12.1 mph14.8 mph14.5 mph13.9 mph13.6 mph13.5 mph13.4 mph12.2 mph9.7 mph6 mph5.6 mph5.6 mph5.7 mph5.6 mph5.4 mph5.2 mph5.1 mph4.8 mph5 mph5 mph4.7 mph4.8 mph4 mph4.5 mph4.4 mph5.6 mph5.9 mph6.1 mph6.3 mph6.7 mph7 mph
Wind
Direction
180°
S
188°
S
186°
S
196°
SSW
205°
SSW
205°
SSW
211°
SSW
290°
WNW
304°
NW
308°
NW
310°
NW
310°
NW
308°
NW
306°
NW
305°
NW
305°
NW
303°
WNW
301°
WNW
307°
NW
310°
NW
308°
NW
305°
NW
303°
WNW
300°
WNW
299°
WNW
297°
WNW
292°
WNW
289°
WNW
291°
WNW
293°
WNW
299°
WNW
296°
WNW
304°
NW
313°
NW
318°
NW
328°
NNW
343°
NNW
351°
N
10°
N
21°
NNE
52°
NE
65°
ENE
85°
E
113°
ESE
131°
SE
141°
SE
145°
SE
155°
SSE

Daily Forecast

Date High Low Precip. Humidity
Today
Nov 29

Rain
61 °F
43 °F
100%
69%
Wednesday
Nov 30

Clear
42 °F
29 °F
77%
38%
Thursday
Dec 1

Clouds
44 °F
27 °F
0%
28%
Friday
Dec 2

Clouds
55 °F
37 °F
0%
50%
Saturday
Dec 3

Rain
62 °F
34 °F
85%
45%
Sunday
Dec 4

Rain
48 °F
28 °F
31%
30%
Monday
Dec 5

Rain
64 °F
45 °F
100%
97%
Tuesday
Dec 6

Rain
63 °F
36 °F
100%
71%
Wednesday
Dec 7

Clouds
42 °F
29 °F
0%
36%
Thursday
Dec 8

Clouds
49 °F
32 °F
0%
45%
Friday
Dec 9

Rain
46 °F
41 °F
100%
97%
Saturday
Dec 10

Rain
52 °F
45 °F
81%
78%
Sunday
Dec 11

Rain
59 °F
51 °F
85%
85%
Monday
Dec 12

Clouds
55 °F
37 °F
0%
48%
Tuesday
Dec 13

Clear
49 °F
32 °F
0%
44%
Wednesday
Dec 14

Clouds
55 °F
34 °F
0%
46%

Temperature 8-14 Day Outlook



Precipitation 8-14 Day Outlook




Quick Links
Lake of Egypt News
Lake of Egypt Photos
Lake of Egypt Videos




About Us
Contact Us
Site Map
Search Site
Advertise With Us
   
Egypt.USLakes.info
THE LAKE OF EGYPT WEBSITE

Copyright 2022, Lakes Online
Privacy    |    Legal